| time (UTC) | temp C | wind direction | speed KPH | gust KPH | rain 1hr cm | rain 24hr cm | rain mn cm | humidity % | barometer mb |
| 20260504001530 | 12 | 154 | 0.0 | 1.6 | 0.00 | 0.00 | 0.00 | 54 | 1013.3 |
| 20260504000019 | 13 | 154 | 0.0 | 6.4 | 0.00 | 0.00 | 0.00 | 52 | 1013.4 |
| 20260503234519 | 13 | 154 | 0.0 | 3.2 | 0.00 | 0.00 | 0.00 | 51 | 1013.5 |
| 20260503233017 | 13 | 154 | 0.0 | 3.2 | 0.00 | 0.00 | 0.00 | 50 | 1013.5 |
| 20260503231516 | 13 | 154 | 1.6 | 4.8 | 0.00 | 0.00 | 0.00 | 49 | 1013.4 |
| 20260503230016 | 14 | 154 | 0.0 | 9.7 | 0.00 | 0.00 | 0.00 | 48 | 1013.6 |
| 20260503224515 | 14 | 154 | 0.0 | 8.0 | 0.00 | 0.00 | 0.00 | 49 | 1013.7 |
| 20260503223115 | 14 | 153 | 3.2 | 8.0 | 0.00 | 0.00 | 0.00 | 46 | 1014.0 |
| 20260503221515 | 14 | 153 | 1.6 | 11.3 | 0.00 | 0.00 | 0.00 | 47 | 1013.9 |
| 20260503220026 | 15 | 154 | 1.6 | 9.7 | 0.00 | 0.00 | 0.00 | 47 | 1013.9 |
| 20260503214525 | 15 | 154 | 1.6 | 14.5 | 0.00 | 0.00 | 0.00 | 47 | 1013.9 |
| 20260503213023 | 15 | 154 | 0.0 | 6.4 | 0.00 | 0.00 | 0.00 | 46 | 1013.6 |
| 20260503211513 | 15 | 154 | 3.2 | 9.7 | 0.00 | 0.00 | 0.00 | 44 | 1013.7 |
| 20260503210014 | 17 | 154 | 4.8 | 11.3 | 0.00 | 0.00 | 0.00 | 41 | 1014.0 |
| 20260503204509 | 16 | 154 | 0.0 | 6.4 | 0.00 | 0.00 | 0.00 | 44 | 1014.0 |
| 20260503203008 | 16 | 154 | 1.6 | 6.4 | 0.00 | 0.00 | 0.00 | 46 | 1014.2 |
| 20260503201504 | 16 | 153 | 3.2 | 9.7 | 0.00 | 0.00 | 0.00 | 43 | 1014.2 |
| 20260503200001 | 16 | 153 | 3.2 | 9.7 | 0.00 | 0.00 | 0.00 | 45 | 1014.6 |
| 20260503194624 | 16 | 154 | 1.6 | 8.0 | 0.00 | 0.00 | 0.00 | 47 | 1014.8 |
| 20260503193058 | 16 | 154 | 3.2 | 11.3 | 0.00 | 0.00 | 0.00 | 39 | 1015.0 |
| 20260503191606 | 16 | 154 | 1.6 | 6.4 | 0.00 | 0.00 | 0.00 | 44 | 1015.2 |
| 20260503190058 | 16 | 155 | 3.2 | 16.1 | 0.00 | 0.00 | 0.00 | 43 | 1015.2 |
| 20260503184553 | 16 | 154 | 4.8 | 11.3 | 0.00 | 0.00 | 0.00 | 44 | 1015.6 |
| 20260503183057 | 16 | 154 | 3.2 | 14.5 | 0.00 | 0.00 | 0.00 | 45 | 1015.8 |
| 20260503181602 | 16 | 154 | 1.6 | 8.0 | 0.00 | 0.00 | 0.00 | 46 | 1016.0 |
| 20260503180051 | 16 | 154 | 1.6 | 11.3 | 0.00 | 0.00 | 0.00 | 47 | 1016.1 |
| 20260503174553 | 16 | 154 | 3.2 | 6.4 | 0.00 | 0.00 | 0.00 | 47 | 1016.3 |
| 20260503173044 | 16 | 154 | 3.2 | 11.3 | 0.00 | 0.00 | 0.00 | 46 | 1016.4 |
| 20260503171540 | 16 | 154 | 3.2 | 12.9 | 0.00 | 0.00 | 0.00 | 48 | 1016.5 |
| 20260503081510 | -1 | 154 | 0.0 | 0.0 | 0.00 | 0.05 | 0.00 | 91 | 1017.7 |
| 20260503071501 | -1 | 155 | 0.0 | 0.0 | 0.00 | 0.05 | 0.00 | 90 | 1017.8 |
| 20260503054546 | 0 | 154 | 0.0 | 0.0 | 0.00 | 0.38 | 0.00 | 86 | 1018.0 |
| 20260503053043 | 1 | 154 | 0.0 | 0.0 | 0.00 | 0.38 | 0.00 | 85 | 1018.1 |
| 20260503051539 | 1 | 154 | 0.0 | 0.0 | 0.00 | 0.38 | 0.00 | 83 | 1018.0 |
| 20260503050035 | 2 | 154 | 0.0 | 0.0 | 0.00 | 0.41 | 0.00 | 82 | 1018.0 |
| 20260503044538 | 2 | 155 | 0.0 | 0.0 | 0.00 | 0.41 | 0.00 | 83 | 1018.2 |
| 20260503043031 | 2 | 154 | 0.0 | 0.0 | 0.00 | 0.41 | 0.00 | 84 | 1018.1 |
| 20260503041530 | 2 | 155 | 0.0 | 0.0 | 0.00 | 0.41 | 0.00 | 84 | 1018.2 |
| 20260503040031 | 2 | 155 | 0.0 | 0.0 | 0.00 | 0.41 | 0.41 | 84 | 1018.4 |
| 20260503034527 | 2 | 155 | 0.0 | 0.0 | 0.00 | 0.41 | 0.41 | 85 | 1018.4 |
| 20260503033026 | 2 | 155 | 0.0 | 0.0 | 0.00 | 0.41 | 0.41 | 85 | 1018.4 |
| 20260503031526 | 2 | 155 | 0.0 | 0.0 | 0.00 | 0.41 | 0.41 | 85 | 1018.5 |
| 20260503030030 | 2 | 154 | 0.0 | 0.0 | 0.00 | 0.41 | 0.41 | 85 | 1018.5 |
| 20260503024525 | 2 | 155 | 0.0 | 0.0 | 0.00 | 0.41 | 0.41 | 84 | 1018.5 |
| 20260503023026 | 2 | 154 | 0.0 | 0.0 | 0.00 | 0.41 | 0.41 | 83 | 1018.7 |
| 20260503021524 | 2 | 154 | 0.0 | 0.0 | 0.00 | 0.41 | 0.41 | 82 | 1018.7 |
| 20260503020023 | 2 | 154 | 0.0 | 0.0 | 0.00 | 0.41 | 0.41 | 81 | 1018.6 |
| 20260503014523 | 2 | 155 | 0.0 | 0.0 | 0.00 | 0.41 | 0.41 | 80 | 1018.7 |
| 20260503013022 | 2 | 155 | 0.0 | 0.0 | 0.00 | 0.41 | 0.41 | 78 | 1018.6 |
| 20260503011529 | 3 | 154 | 0.0 | 0.0 | 0.00 | 0.41 | 0.41 | 77 | 1018.6 |
| 20260503010019 | 3 | 155 | 0.0 | 0.0 | 0.00 | 0.41 | 0.41 | 75 | 1018.5 |
| 20260503004520 | 3 | 154 | 0.0 | 0.0 | 0.00 | 0.41 | 0.41 | 72 | 1018.4 |
| 20260503003017 | 4 | 155 | 0.0 | 0.0 | 0.00 | 0.41 | 0.41 | 70 | 1018.4 |